OKEAN-0
1 25860U 99039A 12151.95274414 .00000444 00000-0 74682-4 0 06526
2 25860 097.9336 114.9498 0000929 036.6594 323.4675 14.74201673692034
NOAA-16
1 26536U 00055A 12152.81880403 .00000084 00000-0 45023-4 0 7645
2 26536 099.0953 194.6888 0011254 127.0261 233.2422 14.12741907602726
NOAA-17
1 27453U 02032A 12152.86673554 .00000225 00000-0 97125-4 0 7224
2 27453 098.3376 180.7292 0011280 199.8970 160.2259 14.24438479516433
NOAA-18
1 28654U 05018A 12152.90553951 .00000282 00000-0 15477-3 0 1987
2 28654 099.0455 110.8604 0013833 197.4644 162.6526 14.11656240362269
NOAA-19
1 33591U 09005A 12152.90980568 .00000066 00000-0 36748-4 0 3900
2 33591 098.8638 092.9022 0015064 068.0751 292.2489 14.11341429170714
HUBBLE
1 20580U 90037B 12150.12705611 .00001696 00000-0 11220-3 0 77
2 20580 028.4710 268.2752 0003169 210.6462 149.3849 15.02512890 11868
ISS
1 25544U 98067A 12152.87461806 .00007984 00000-0 11911-3 0 6688
2 25544 051.6384 203.9702 0010241 015.6124 317.7232 15.56032399775466
CO-58
1 28895U 05043F 12152.57347966 .00000431 00000-0 97565-4 0 1886
2 28895 097.9179 019.5753 0017562 199.0130 161.0451 14.60623631351234
FALCON
1 30776U 07006E 12151.97009576 .00003318 00000-0 21713-3 0 03647
2 30776 035.4322 021.9930 0002188 267.7353 092.3105 15.07448537287652
MAST
1 31126U 07012K 12152.57097832 .00000373 00000-0 93296-4 0 4705
2 31126 097.8743 164.6446 0093994 161.7580 198.7028 14.54149000271852
CAPE1
1 31130U 07012P 12151.69763757 .00000111 00000-0 35462-4 0 4800
2 31130 097.8848 160.2139 0101364 177.5748 182.5927 14.52922381271236
COMPASS
1 32787U 08021E 12151.67295968 .00001839 00000-0 22706-3 0 03186
2 32787 097.8009 213.3945 0016345 116.0294 244.2616 14.83946065221210
AAUSAT2
1 32788U 08021F 12151.84862412 .00001110 00000-0 13848-3 0 3066
2 32788 097.8033 213.9385 0016304 115.9801 244.3034 14.84259814221269
DO-64
1 32789U 08021G 12151.71134102 .00002277 00000-0 26803-3 0 3229
2 32789 097.8130 215.7592 0015958 113.7400 246.5479 14.85707327221280
CO-66
1 32791U 08021J 12152.19535630 .00001188 00000-0 15093-3 0 3067
2 32791 097.8005 213.6609 0016749 114.8526 245.4484 14.83372899221228
RS-30
1 32953U 08025A 12152.38736904 .00000010 00000-0 00000 0 0 8256
2 32953 082.4996 305.5851 0018567 348.0571 012.0072 12.43023859182475
TACSAT-3
1 35001U 09028A 12121.72616188 .15204951 73582-5 42606-3 0 00016
2 35001 040.4259 351.8840 0007146 275.2650 085.0693 16.45157000166990
PHARMSAT
1 35002U 09028B 12152.22064957 .00088984 00000-0 43403-3 0 9168
2 35002 040.4581 175.8128 0005799 111.0709 249.0764 15.81244893171630
METEOR-M
1 35865U 09049A 12152.33079989 -.00000011 00000-0 14622-4 0 4579
2 35865 098.6556 206.9713 0003343 095.8330 264.3229 14.21863013140201
RS-38
1 35869U 09049E 12152.49515934 .00000029 00000-0 32660-4 0 4654
2 35869 098.6512 207.1306 0005493 097.2346 262.9457 14.22071836140245
JUGNU
1 37839U 11058B 12150.23237523 .00000619 00000-0 19019-3 0 01587
2 37839 019.9583 113.0534 0019605 016.2085 343.8895 14.12056232032569
SRMSAT
1 37841U 11058D 12150.26108914 .00000264 00000-0 00000-0 0 01600
2 37841 019.9697 117.3923 0011769 341.2744 018.7278 14.10140464032521
RAX-2
1 37853U 11061D 12152.55650693 .00004568 00000-0 36819-3 0 1912
2 37853 101.7166 185.1679 0247363 038.3562 323.4920 14.79895900 31930
AUBIESAT
1 37854U 11061E 12152.58308381 .00004963 00000-0 39403-3 0 1922
2 37854 101.7153 185.4222 0247835 038.0762 323.7665 14.80262451 31937
HRBE
1 37855U 11061F 12151.98678002 .00004904 00000-0 38957-3 0 01924
2 37855 101.7195 184.5267 0248738 039.4831 322.4202 14.80122460031846
RS-39
1 38051U 11062C 12152.54274817 .00007502 00000-0 31809-3 0 3820
2 38051 051.6329 239.1371 0012196 339.5104 146.8636 15.24038817 19435
E-STAR
1 38079U 12006C 12151.90691471 .00014681 00000-0 36132-3 0 2602
2 38079 069.4949 355.1413 0748960 269.6523 081.8862 14.13905201 15149
GOLIAT
1 38085U 12006J 12152.59466905 .00016479 00000-0 40790-3 0 2407
2 38085 069.4916 353.7821 0752577 268.9923 082.4859 14.12984601 15235
HORYU-2
1 38340U 12025D 12151.12852606 .00000796 00000-0 14123-3 0 210
2 38340 098.1740 090.8180 0013874 031.9477 328.2512 14.69939215 1822
